Time,TemperatureF,DewpointF,PressureIn,WindDirection,WindDirectionDegrees,WindSpeedMPH,WindSpeedGustMPH,Humidity,HourlyPrecipIn,Conditions,Clouds,dailyrainin,SoftwareType,DateUTC
2013-01-24 00:03:00,20.0,16.0,-100.00,WSW,250,0.0,0.0,84,0.00,,,-99.99,,2013-01-24 05:03:00,
2013-01-24 00:12:00,20.0,16.0,-100.00,NE,50,1.0,1.0,85,0.00,,,-99.99,,2013-01-24 05:12:00,
2013-01-24 00:22:00,19.0,16.0,-100.00,ESE,120,0.0,2.0,87,0.00,,,-99.99,,2013-01-24 05:22:00,
2013-01-24 00:33:00,19.0,16.0,-100.00,ESE,120,0.0,2.0,87,0.00,,,-99.99,,2013-01-24 05:33:00,
2013-01-24 00:42:00,19.0,16.0,-100.00,ESE,105,1.0,2.0,88,0.00,,,-99.99,,2013-01-24 05:42:00,
2013-01-24 00:52:00,19.0,16.0,-100.00,ESE,105,1.0,2.0,88,0.00,,,-99.99,,2013-01-24 05:52:00,
2013-01-24 01:03:00,19.0,16.0,-100.00,NE,35,3.0,4.0,90,0.00,,,-99.99,,2013-01-24 06:03:00,
2013-01-24 01:12:00,18.0,16.0,-100.00,NNE,20,3.0,5.0,91,0.00,,,-99.99,,2013-01-24 06:12:00,
2013-01-24 01:22:00,18.0,16.0,-100.00,NE,45,3.0,4.0,92,0.01,,,-99.99,,2013-01-24 06:22:00,
2013-01-24 01:32:00,18.0,16.0,-100.00,NE,45,3.0,4.0,92,0.01,,,-99.99,,2013-01-24 06:32:00,
2013-01-24 01:42:00,18.0,16.0,-100.00,NNE,25,2.0,5.0,92,0.00,,,-99.99,,2013-01-24 06:42:00,
2013-01-24 01:52:00,18.0,17.0,-100.00,NE,50,1.0,5.0,93,0.01,,,-99.99,,2013-01-24 06:52:00,
2013-01-24 02:03:00,18.0,17.0,-100.00,NE,50,1.0,5.0,93,0.01,,,-99.99,,2013-01-24 07:03:00,
2013-01-24 02:12:00,18.0,17.0,-100.00,NE,50,3.0,6.0,94,0.03,,,-99.99,,2013-01-24 07:12:00,
2013-01-24 02:23:00,18.0,17.0,-100.00,NE,50,3.0,6.0,94,0.03,,,-99.99,,2013-01-24 07:23:00,
2013-01-24 02:33:00,18.0,17.0,-100.00,NE,40,4.0,6.0,95,0.01,,,-99.99,,2013-01-24 07:33:00,
2013-01-24 02:43:00,18.0,17.0,-100.00,NE,40,3.0,7.0,96,0.00,,,-99.99,,2013-01-24 07:43:00,
2013-01-24 02:52:00,18.0,17.0,-100.00,North,10,1.0,4.0,96,0.00,,,-99.99,,2013-01-24 07:52:00,
2013-01-24 03:02:00,18.0,17.0,-100.00,North,10,1.0,4.0,96,0.00,,,-99.99,,2013-01-24 08:02:00,
2013-01-24 03:13:00,18.0,17.0,-100.00,NNE,15,1.0,4.0,97,0.00,,,-99.99,,2013-01-24 08:13:00,
2013-01-24 03:23:00,18.0,17.0,-100.00,NNE,15,1.0,4.0,97,0.00,,,-99.99,,2013-01-24 08:23:00,
2013-01-24 03:33:00,18.0,17.0,-100.00,NNE,30,1.0,4.0,97,0.00,,,-99.99,,2013-01-24 08:33:00,
2013-01-24 03:43:00,18.0,17.0,-100.00,ENE,65,1.0,3.0,98,0.00,,,-99.99,,2013-01-24 08:43:00,
2013-01-24 03:52:00,18.0,17.0,-100.00,ENE,65,1.0,3.0,98,0.00,,,-99.99,,2013-01-24 08:52:00,
2013-01-24 04:03:00,18.0,17.0,-100.00,ENE,65,1.0,3.0,98,0.00,,,-99.99,,2013-01-24 09:03:00,
2013-01-24 04:13:00,18.0,17.0,-100.00,NE,40,2.0,3.0,98,0.00,,,-99.99,,2013-01-24 09:13:00,
2013-01-24 04:23:00,18.0,17.0,-100.00,ENE,65,3.0,5.0,98,0.00,,,-99.99,,2013-01-24 09:23:00,
2013-01-24 04:33:00,18.0,17.0,-100.00,ENE,65,3.0,5.0,98,0.00,,,-99.99,,2013-01-24 09:33:00,
2013-01-24 04:43:00,18.0,17.0,-100.00,ESE,110,1.0,3.0,98,0.00,,,-99.99,,2013-01-24 09:43:00,
2013-01-24 04:52:00,18.0,17.0,-100.00,North,10,2.0,4.0,98,0.00,,,-99.99,,2013-01-24 09:52:00,
2013-01-24 05:03:00,18.0,17.0,-100.00,North,10,2.0,4.0,98,0.00,,,-99.99,,2013-01-24 10:03:00,
2013-01-24 05:12:00,18.0,17.0,-100.00,NNE,25,1.0,2.0,98,0.00,,,-99.99,,2013-01-24 10:12:00,
2013-01-24 05:23:00,18.0,17.0,-100.00,NNE,25,1.0,2.0,98,0.00,,,-99.99,,2013-01-24 10:23:00,
2013-01-24 05:33:00,18.0,17.0,-100.00,ENE,60,2.0,4.0,99,0.00,,,-99.99,,2013-01-24 10:33:00,
2013-01-24 05:43:00,17.0,17.0,-100.00,SE,135,0.0,4.0,99,0.00,,,-99.99,,2013-01-24 10:43:00,
2013-01-24 05:52:00,17.0,17.0,-100.00,North,0,2.0,4.0,99,0.00,,,-99.99,,2013-01-24 10:52:00,
2013-01-24 06:03:00,17.0,17.0,-100.00,North,0,2.0,4.0,99,0.00,,,-99.99,,2013-01-24 11:03:00,
2013-01-24 06:12:00,17.0,17.0,-100.00,NNW,340,3.0,6.0,99,0.00,,,-99.99,,2013-01-24 11:12:00,
2013-01-24 06:23:00,17.0,17.0,-100.00,NNE,20,2.0,7.0,99,0.00,,,-99.99,,2013-01-24 11:23:00,
2013-01-24 06:33:00,17.0,17.0,-100.00,NNE,20,2.0,7.0,99,0.00,,,-99.99,,2013-01-24 11:33:00,
2013-01-24 06:43:00,17.0,17.0,-100.00,North,0,3.0,7.0,99,0.00,,,-99.99,,2013-01-24 11:43:00,
2013-01-24 06:53:00,17.0,17.0,-100.00,North,0,3.0,7.0,99,0.00,,,-99.99,,2013-01-24 11:53:00,
2013-01-24 07:03:00,17.0,17.0,-100.00,North,5,3.0,8.0,99,0.00,,,-99.99,,2013-01-24 12:03:00,
2013-01-24 07:12:00,18.0,17.0,-100.00,NNW,330,4.0,9.0,98,0.00,,,-99.99,,2013-01-24 12:12:00,
2013-01-24 07:23:00,18.0,17.0,-100.00,NNW,335,6.0,11.0,97,0.00,,,-99.99,,2013-01-24 12:23:00,
2013-01-24 07:33:00,18.0,17.0,-100.00,NNW,335,6.0,11.0,97,0.00,,,-99.99,,2013-01-24 12:33:00,
2013-01-24 07:43:00,18.0,17.0,-100.00,NNW,335,4.0,11.0,95,0.00,,,-99.99,,2013-01-24 12:43:00,
2013-01-24 07:53:00,18.0,16.0,-100.00,NW,305,6.0,13.0,92,0.00,,,-99.99,,2013-01-24 12:53:00,
2013-01-24 08:03:00,18.0,16.0,-100.00,NW,305,6.0,13.0,92,0.00,,,-99.99,,2013-01-24 13:03:00,
2013-01-24 08:13:00,18.0,16.0,-100.00,NW,325,3.0,11.0,91,0.00,,,-99.99,,2013-01-24 13:13:00,
2013-01-24 08:23:00,18.0,16.0,-100.00,NW,325,3.0,11.0,91,0.00,,,-99.99,,2013-01-24 13:23:00,
2013-01-24 08:33:00,18.0,15.0,-100.00,NNW,330,6.0,14.0,85,0.00,,,-99.99,,2013-01-24 13:33:00,
2013-01-24 08:43:00,18.0,14.0,-100.00,NW,320,4.0,14.0,84,0.00,,,-99.99,,2013-01-24 13:43:00,
2013-01-24 08:53:00,19.0,14.0,-100.00,NW,320,5.0,12.0,80,0.00,,,-99.99,,2013-01-24 13:53:00,
2013-01-24 09:03:00,19.0,14.0,-100.00,NW,320,5.0,12.0,80,0.00,,,-99.99,,2013-01-24 14:03:00,
2013-01-24 09:12:00,21.0,15.0,-100.00,North,350,0.0,11.0,77,0.00,,,-99.99,,2013-01-24 14:12:00,
2013-01-24 09:23:00,21.0,15.0,-100.00,North,350,0.0,11.0,77,0.00,,,-99.99,,2013-01-24 14:23:00,
2013-01-24 09:33:00,21.0,15.0,-100.00,NNE,20,5.0,11.0,76,0.00,,,-99.99,,2013-01-24 14:33:00,
2013-01-24 09:43:00,21.0,13.0,-100.00,NE,55,4.0,11.0,74,0.00,,,-99.99,,2013-01-24 14:43:00,
2013-01-24 09:53:00,21.0,14.0,-100.00,North,0,3.0,8.0,73,0.00,,,-99.99,,2013-01-24 14:53:00,
2013-01-24 10:04:00,21.0,14.0,-100.00,North,0,3.0,8.0,73,0.00,,,-99.99,,2013-01-24 15:04:00,
2013-01-24 10:12:00,22.0,14.0,-100.00,NNE,30,3.0,12.0,72,0.00,,,-99.99,,2013-01-24 15:12:00,
2013-01-24 10:23:00,22.0,14.0,-100.00,NNE,30,3.0,12.0,72,0.00,,,-99.99,,2013-01-24 15:23:00,
2013-01-24 10:33:00,22.0,13.0,-100.00,NNW,340,7.0,12.0,68,0.00,,,-99.99,,2013-01-24 15:33:00,
2013-01-24 10:43:00,22.0,13.0,-100.00,NNW,330,3.0,16.0,67,0.00,,,-99.99,,2013-01-24 15:43:00,
2013-01-24 10:53:00,22.0,12.0,-100.00,NNW,330,9.0,17.0,63,0.00,,,-99.99,,2013-01-24 15:53:00,
2013-01-24 11:04:00,22.0,12.0,-100.00,NNW,330,9.0,17.0,63,0.00,,,-99.99,,2013-01-24 16:04:00,
2013-01-24 11:12:00,23.0,12.0,-100.00,North,350,7.0,20.0,62,0.00,,,-99.99,,2013-01-24 16:12:00,
2013-01-24 11:23:00,23.0,12.0,-100.00,North,350,7.0,20.0,62,0.00,,,-99.99,,2013-01-24 16:23:00,
2013-01-24 11:33:00,23.0,10.0,-100.00,NNW,335,7.0,16.0,57,0.00,,,-99.99,,2013-01-24 16:33:00,
2013-01-24 11:42:00,23.0,10.0,-100.00,NNW,335,7.0,16.0,57,0.00,,,-99.99,,2013-01-24 16:42:00,
2013-01-24 12:03:00,23.0,10.0,-100.00,NNW,335,7.0,16.0,57,0.00,,,-99.99,,2013-01-24 17:03:00,
2013-01-24 16:53:00,25.0,7.0,-100.00,North,5,4.0,9.0,47,0.00,,,-99.99,,2013-01-24 21:53:00,
2013-01-24 17:03:00,25.0,7.0,-100.00,North,5,4.0,9.0,47,0.00,,,-99.99,,2013-01-24 22:03:00,
2013-01-24 17:12:00,24.0,7.0,-100.00,NE,45,1.0,7.0,47,0.00,,,-99.99,,2013-01-24 22:12:00,
2013-01-24 17:22:00,24.0,6.0,-100.00,NNE,25,2.0,9.0,47,0.00,,,-99.99,,2013-01-24 22:22:00,
2013-01-24 17:33:00,24.0,6.0,-100.00,NNE,25,2.0,9.0,47,0.00,,,-99.99,,2013-01-24 22:33:00,
2013-01-24 17:42:00,23.0,6.0,-100.00,NE,50,1.0,8.0,47,0.00,,,-99.99,,2013-01-24 22:42:00,
2013-01-24 17:52:00,23.0,5.0,-100.00,North,0,4.0,14.0,47,0.00,,,-99.99,,2013-01-24 22:52:00,
2013-01-24 18:03:00,23.0,5.0,-100.00,North,0,4.0,14.0,47,0.00,,,-99.99,,2013-01-24 23:03:00,
2013-01-24 18:12:00,22.0,5.0,-100.00,NE,40,1.0,7.0,47,0.00,,,-99.99,,2013-01-24 23:12:00,
2013-01-24 18:22:00,22.0,5.0,-100.00,NE,40,1.0,7.0,47,0.00,,,-99.99,,2013-01-24 23:22:00,
2013-01-24 18:32:00,22.0,5.0,-100.00,North,0,1.0,7.0,47,0.00,,,-99.99,,2013-01-24 23:32:00,
2013-01-24 18:42:00,22.0,4.0,-100.00,NW,315,5.0,9.0,46,0.00,,,-99.99,,2013-01-24 23:42:00,
2013-01-24 18:52:00,22.0,4.0,-100.00,NW,315,5.0,9.0,46,0.00,,,-99.99,,2013-01-24 23:52:00,
2013-01-24 19:02:00,22.0,4.0,-100.00,NW,325,2.0,7.0,46,0.00,,,-99.99,,2013-01-25 00:02:00,
2013-01-24 19:12:00,21.0,4.0,-100.00,NNW,345,1.0,3.0,46,0.00,,,-99.99,,2013-01-25 00:12:00,
2013-01-24 19:22:00,21.0,3.0,-100.00,NNW,330,2.0,7.0,45,0.00,,,-99.99,,2013-01-25 00:22:00,
2013-01-24 19:32:00,21.0,3.0,-100.00,NNW,330,2.0,7.0,45,0.00,,,-99.99,,2013-01-25 00:32:00,
2013-01-24 19:42:00,21.0,2.0,-100.00,NNW,335,4.0,7.0,44,0.00,,,-99.99,,2013-01-25 00:42:00,
2013-01-24 19:52:00,20.0,2.0,-100.00,NW,320,1.0,4.0,44,0.00,,,-99.99,,2013-01-25 00:52:00,
2013-01-24 20:02:00,20.0,2.0,-100.00,NW,320,1.0,4.0,44,0.00,,,-99.99,,2013-01-25 01:02:00,
2013-01-24 20:12:00,20.0,2.0,-100.00,WNW,285,1.0,4.0,45,0.00,,,-99.99,,2013-01-25 01:12:00,
2013-01-24 20:22:00,20.0,1.0,-100.00,NNE,25,3.0,6.0,44,0.00,,,-99.99,,2013-01-25 01:22:00,
2013-01-24 20:32:00,20.0,1.0,-100.00,NNE,25,3.0,6.0,44,0.00,,,-99.99,,2013-01-25 01:32:00,
2013-01-24 20:42:00,20.0,1.0,-100.00,NW,310,1.0,6.0,44,0.00,,,-99.99,,2013-01-25 01:42:00,
2013-01-24 20:52:00,19.0,1.0,-100.00,North,5,0.0,4.0,45,0.00,,,-99.99,,2013-01-25 01:52:00,
2013-01-24 21:02:00,19.0,1.0,-100.00,North,5,0.0,4.0,45,0.00,,,-99.99,,2013-01-25 02:02:00,
2013-01-24 21:11:00,19.0,1.0,-100.00,NNW,330,0.0,3.0,45,0.00,,,-99.99,,2013-01-25 02:11:00,
2013-01-24 21:22:00,18.0,0.0,-100.00,WNW,295,1.0,2.0,46,0.00,,,-99.99,,2013-01-25 02:22:00,
2013-01-24 21:32:00,18.0,0.0,-100.00,WNW,295,1.0,2.0,46,0.00,,,-99.99,,2013-01-25 02:32:00,
2013-01-24 21:42:00,17.0,1.0,-100.00,SW,220,0.0,4.0,50,0.00,,,-99.99,,2013-01-25 02:42:00,
2013-01-24 21:52:00,17.0,2.0,-100.00,NNE,15,0.0,4.0,52,0.00,,,-99.99,,2013-01-25 02:52:00,
2013-01-24 22:02:00,17.0,2.0,-100.00,NNE,15,0.0,4.0,52,0.00,,,-99.99,,2013-01-25 03:02:00,
2013-01-24 22:12:00,18.0,2.0,-100.00,NW,320,4.0,6.0,51,0.00,,,-99.99,,2013-01-25 03:12:00,
2013-01-24 22:22:00,17.0,2.0,-100.00,North,10,0.0,5.0,51,0.00,,,-99.99,,2013-01-25 03:22:00,
2013-01-24 22:33:00,17.0,2.0,-100.00,North,10,0.0,5.0,51,0.00,,,-99.99,,2013-01-25 03:33:00,
2013-01-24 22:42:00,16.0,1.0,-100.00,NW,315,0.0,2.0,52,0.00,,,-99.99,,2013-01-25 03:42:00,
2013-01-24 22:52:00,17.0,2.0,-100.00,North,0,2.0,3.0,52,0.00,,,-99.99,,2013-01-25 03:52:00,
2013-01-24 23:02:00,17.0,2.0,-100.00,North,0,2.0,3.0,52,0.00,,,-99.99,,2013-01-25 04:02:00,
2013-01-24 23:12:00,17.0,2.0,-100.00,NNE,20,4.0,7.0,52,0.00,,,-99.99,,2013-01-25 04:12:00,
2013-01-24 23:22:00,17.0,2.0,-100.00,West,280,0.0,6.0,52,0.00,,,-99.99,,2013-01-25 04:22:00,
2013-01-24 23:32:00,17.0,2.0,-100.00,West,280,0.0,6.0,52,0.00,,,-99.99,,2013-01-25 04:32:00,
2013-01-24 23:42:00,16.0,2.0,-100.00,SSE,155,2.0,4.0,54,0.00,,,-99.99,,2013-01-25 04:42:00,
2013-01-24 23:51:00,16.0,3.0,-100.00,ENE,75,1.0,3.0,55,0.00,,,-99.99,,2013-01-25 04:51:00,